Location: Hertford
(51.8000°N, 0.0667°W)
Time: 16:19:51
(UTC+00:00)

ERS-1 Rocket - Pass Details

Date: 18 September 2020
Orbit: 753 x 757 km, 98.5° (Epoch: 31 October)

Event Time Altitude Azimuth Distance (km) Brightness Sun altitude
Exits shadow 20:57:21 51° 57° (ENE) 948 3.3 -25.1°
Drops below altitude 10° 21:02:00 10° 353° (N) 2,298 6.1 -25.6°
Sets 21:04:21 0° 349° (NNW) 3,228 7.0 -25.9°
